[[{"header":{"parameterUnit":"m.s-1","parameterCategory":1,"la1":30.2991,"la2":30.254,"lo1":-89.0895,"lo2":-89.0444,"dy":0.0017,"dx":0.0017,"nx":28,"ny":28,"refTime":"2024-04-28T21:00:00:Z","depth":0,"parameterNumber":2,"parameterNumberName":"U-component_of_WINDS"},"data":[0,0,0,0,0,0,0,0,0,0,0,0,0,0,0,0,0,0,0,0,0,0,0,0,0,0,0,0,0,0,0,0,0,0,0,0,0,0,0,0,0,0,0,0,0,0,0,0,0,0,0,0,0,0,0,0,0,0,-0.7423,-0.7423,0,-0.7472,-0.7472,-0.7473,-0.75,-0.75,-0.75,-0.75,-0.7551,-0.7553,-0.7554,0,0,0,0,0,0,0,0,0,0,0,0,0,-0.7354,-0.7355,-0.7423,-0.7423,-0.7424,-0.7471,-0.7472,-0.7473,-0.75,-0.75,-0.75,-0.75,-0.7551,-0.7552,-0.7554,0,0,0,0,0,0,0,0,0,0,0,0,0,-0.7392,-0.7356,-0.7423,-0.7443,-0.7445,-0.7471,-0.7472,-0.7473,-0.75,-0.75,-0.75,-0.75,-0.755,-0.7552,-0.7554,-0.7564,0,0,-0.756,-0.7561,0,0,0,0,0,0,0,0,-0.7389,-0.7394,-0.7439,-0.7442,-0.7444,-0.748,-0.7467,-0.7504,-0.75,-0.7479,-0.75,-0.75,-0.7527,-0.7531,-0.754,-0.7566,-0.7569,-0.756,-0.7562,-0.7562,-0.7563,0,0,0,0,0,0,0,-0.7387,-0.7392,-0.7442,-0.744,-0.7443,-0.745,-0.7456,-0.7474,-0.7502,-0.7481,-0.7483,-0.7488,-0.7529,-0.7538,-0.7542,-0.7569,-0.756,-0.7562,-0.7563,-0.7564,-0.7606,-0.7606,0,0,0,0,0,0,-0.7381,-0.739,-0.7441,-0.7444,-0.7417,-0.7451,-0.7457,-0.7468,-0.7502,-0.7507,-0.7488,-0.7489,-0.7535,-0.7539,-0.7544,-0.7557,-0.7562,-0.7564,-0.7565,-0.7606,-0.7606,-0.7606,0,0,0,0,0,0,-0.7379,-0.7385,-0.7439,-0.7417,-0.7425,-0.7452,-0.7464,-0.7469,-0.7479,-0.7507,-0.7513,-0.7493,-0.7535,-0.7541,-0.7559,-0.7559,-0.7565,-0.7567,-0.7606,-0.7606,-0.7606,-0.7584,0,0,0,0,0,0,-0.7377,-0.7384,-0.7388,-0.7417,-0.7426,-0.7452,-0.7464,-0.747,-0.7482,-0.7484,-0.7513,-0.7518,-0.7536,-0.7555,-0.756,-0.7562,-0.7568,-0.7606,-0.7606,-0.7606,-0.7585,-0.7583,-0.7582,0,0,0,0,0,-0.7375,-0.738,-0.7388,-0.7394,-0.7431,-0.7452,-0.7457,-0.7477,-0.7482,-0.7486,-0.7504,-0.7517,-0.7558,-0.7557,-0.7563,-0.7565,-0.7606,-0.7606,-0.7606,-0.7586,-0.7584,-0.7582,0,0,0,0,0,0,-0.7351,-0.7385,-0.7393,-0.7409,-0.7427,-0.7457,-0.7463,-0.7474,-0.7493,-0.7494,-0.7518,-0.7525,-0.754,-0.7554,-0.7552,-0.7576,-0.7584,-0.7585,-0.7566,-0.7565,-0.7563,-0.7559,-0.757,0,0,0,0,0,-0.7348,-0.7362,-0.739,-0.7401,-0.741,-0.7435,-0.7445,-0.7458,-0.7479,-0.7487,-0.7507,-0.7527,-0.7544,-0.7555,-0.7573,-0.7587,-0.7594,-0.7592,-0.759,-0.7589,-0.7589,-0.7598,-0.7597,-0.7605,-0.7605,-0.7605,0,0,-0.7341,-0.7361,-0.7368,-0.7397,-0.7413,-0.7428,-0.7441,-0.7456,-0.7467,-0.749,-0.7507,-0.7522,-0.7546,-0.7562,-0.757,-0.7575,-0.7589,-0.7589,-0.7587,-0.7589,-0.7598,-0.7597,-0.7596,-0.7605,-0.7605,-0.7605,0,0,-0.7336,-0.7352,-0.7363,-0.7378,-0.7402,-0.7419,-0.7421,-0.7449,-0.7459,-0.7478,-0.7495,-0.7508,-0.7538,-0.7554,-0.7566,-0.7567,-0.7579,-0.7572,-0.7564,-0.7572,-0.7572,-0.7571,-0.7572,-0.7571,-0.7573,-0.7572,-0.7572,0,-0.7324,-0.7347,-0.7367,-0.7381,-0.7393,-0.7413,-0.7424,-0.7439,-0.7467,-0.7475,-0.748,-0.7517,-0.7535,-0.7555,-0.7555,-0.7564,-0.7568,-0.7569,-0.757,-0.757,-0.757,-0.757,-0.757,-0.7571,-0.7572,-0.7572,-0.7572,0,-0.7331,-0.7346,-0.7352,-0.7379,-0.7391,-0.7404,-0.7426,-0.7437,-0.7449,-0.7465,-0.7483,-0.7505,-0.7527,-0.7533,-0.7546,-0.7555,-0.7557,-0.7565,-0.7573,-0.7568,-0.7568,-0.7569,-0.757,-0.757,-0.7571,-0.7571,0,0,-0.7313,-0.735,-0.7352,-0.7364,-0.7392,-0.7404,-0.7418,-0.7439,-0.7447,-0.7466,-0.7478,-0.7503,-0.7511,-0.7524,-0.7539,-0.7546,-0.7545,-0.7554,-0.7555,-0.7551,-0.7556,-0.755,-0.755,-0.7553,-0.7554,-0.7554,-0.7554,0,-0.7312,-0.7336,-0.7355,-0.7373,-0.7387,-0.7406,-0.7418,-0.7436,-0.7451,-0.7466,-0.7483,-0.75,-0.7509,-0.7517,-0.7525,-0.7543,-0.7546,-0.7544,-0.7565,-0.7566,-0.7558,-0.755,-0.7543,-0.7543,-0.7555,-0.7555,-0.7555,0,-0.7314,-0.7332,-0.735,-0.7376,-0.7383,-0.7393,-0.7414,-0.7427,-0.7449,-0.7459,-0.7474,-0.7489,-0.7505,-0.7511,-0.7532,-0.753,-0.754,-0.755,-0.7551,-0.7554,-0.756,-0.7553,-0.7544,-0.7543,-0.7556,-0.7556,-0.7556,0,-0.7299,-0.7327,-0.7342,-0.7352,-0.7383,-0.7389,-0.7402,-0.7424,-0.7435,-0.7454,-0.7461,-0.7481,-0.7493,-0.7508,-0.7528,-0.7531,-0.7548,-0.7556,-0.7557,-0.7556,-0.756,-0.7559,-0.7552,-0.7566,-0.7566,-0.7566,-0.7566,0,-0.7296,-0.7307,-0.7336,-0.7345,-0.7357,-0.7379,-0.7391,-0.7406,-0.7424,-0.7437,-0.7455,-0.7467,-0.7493,-0.7507,-0.7523,-0.7539,-0.7544,-0.7553,-0.7557,-0.7551,-0.755,-0.7558,-0.7559,-0.7566,-0.7566,-0.7566,-0.7566,0,-0.7281,-0.7301,-0.7318,-0.7346,-0.7353,-0.7361,-0.7384,-0.7394,-0.741,-0.7426,-0.7431,-0.7456,-0.7474,-0.7496,-0.7521,-0.7532,-0.7546,-0.7552,-0.7538,-0.7541,-0.7541,-0.7541,-0.7539,-0.754,-0.7553,-0.7553,-0.7552,0,-0.7278,-0.7287,-0.7314,-0.7324,-0.7336,-0.7351,-0.7363,-0.7384,-0.7396,-0.742,-0.7427,-0.7447,-0.7463,-0.7492,-0.7513,-0.7532,-0.7539,-0.7537,-0.7542,-0.7536,-0.7539,-0.7538,-0.7539,-0.7536,-0.7535,-0.7535,-0.7535,0,-0.727,-0.7279,-0.7295,-0.7314,-0.7327,-0.7343,-0.736,-0.7367,-0.7392,-0.7404,-0.7423,-0.7436,-0.7461,-0.7481,-0.7503,-0.7517,-0.753,-0.7533,-0.7534,-0.7529,-0.752,-0.7525,-0.7535,-0.7533,-0.7533,-0.7533,-0.7534,-0.7534,-0.7261,-0.727,-0.729,-0.7307,-0.7322,-0.7337,-0.7347,-0.7364,-0.738,-0.7402,-0.7414,-0.7432,-0.7454,-0.7484,-0.7498,-0.7513,-0.7518,-0.752,-0.752,-0.752,-0.7519,-0.7518,-0.7517,-0.7517,-0.7517,-0.7517,-0.7518,0,-0.7254,-0.7268,-0.7283,-0.7306,-0.7319,-0.733,-0.7349,-0.736,-0.7375,-0.7394,-0.741,-0.7431,-0.745,-0.7472,-0.7492,-0.75,-0.7506,-0.7504,-0.7504,-0.7507,-0.7513,-0.751,-0.7499,-0.7499,-0.7499,-0.7499,-0.7499,-0.7499,-0.7252,-0.7267,-0.7278,-0.73,-0.7315,-0.7332,-0.7342,-0.7357,-0.7371,-0.7394,-0.7409,-0.7423,-0.7443,-0.7465,-0.7483,-0.7489,-0.7495,-0.7491,-0.7499,-0.7505,-0.7507,-0.7508,-0.7505,-0.7493,-0.7493,-0.7492,-0.7492,-0.7492]},{"header":{"parameterUnit":"m.s-1","parameterCategory":1,"la1":30.2991,"la2":30.254,"lo1":-89.0895,"lo2":-89.0444,"dy":0.0017,"dx":0.0017,"nx":28,"ny":28,"refTime":"2024-04-28T21:00:00:Z","depth":0,"parameterNumber":3,"parameterNumberName":"V-component_of_WINDS"},"data":[0,0,0,0,0,0,0,0,0,0,0,0,0,0,0,0,0,0,0,0,0,0,0,0,0,0,0,0,0,0,0,0,0,0,0,0,0,0,0,0,0,0,0,0,0,0,0,0,0,0,0,0,0,0,0,0,0,0,3.328,3.328,0,3.3293,3.3294,3.3294,3.3275,3.3274,3.3274,3.3273,3.3286,3.3287,3.3287,0,0,0,0,0,0,0,0,0,0,0,0,0,3.3235,3.3236,3.328,3.328,3.328,3.3293,3.3294,3.3294,3.3275,3.3274,3.3273,3.3273,3.3285,3.3286,3.3288,0,0,0,0,0,0,0,0,0,0,0,0,0,3.3252,3.3237,3.328,3.3272,3.3272,3.3293,3.3294,3.3294,3.3275,3.3274,3.3273,3.3272,3.3285,3.3286,3.3288,3.3317,0,0,3.3292,3.3293,0,0,0,0,0,0,0,0,3.3252,3.3254,3.3273,3.3273,3.3272,3.3281,3.3283,3.3301,3.3275,3.3274,3.3273,3.3272,3.3285,3.3286,3.3291,3.3317,3.3318,3.3292,3.3293,3.3294,3.3294,0,0,0,0,0,0,0,3.325,3.3253,3.3285,3.3274,3.3273,3.3268,3.3269,3.3286,3.3285,3.3274,3.3273,3.3275,3.3284,3.329,3.3291,3.3318,3.3292,3.3293,3.3294,3.3295,3.3367,3.3368,0,0,0,0,0,0,3.325,3.3253,3.3285,3.3286,3.3259,3.3269,3.3271,3.328,3.3285,3.3284,3.3275,3.3274,3.3288,3.329,3.3292,3.3325,3.3294,3.3295,3.3296,3.3366,3.3367,3.3369,0,0,0,0,0,0,3.3249,3.3253,3.3284,3.3269,3.3272,3.3271,3.3281,3.328,3.3286,3.3286,3.3285,3.3281,3.3287,3.329,3.331,3.3325,3.3296,3.3297,3.3365,3.3367,3.3368,3.3392,0,0,0,0,0,0,3.3248,3.3253,3.3265,3.3269,3.3273,3.3303,3.3282,3.3281,3.3288,3.3286,3.3291,3.3291,3.3286,3.3308,3.3312,3.3326,3.3298,3.3364,3.3366,3.3367,3.339,3.3394,3.3398,0,0,0,0,0,3.3247,3.3271,3.3265,3.3269,3.3288,3.3304,3.3306,3.3301,3.329,3.3301,3.3301,3.3291,3.3323,3.3311,3.3314,3.333,3.3363,3.3365,3.3367,3.3388,3.3393,3.3398,0,0,0,0,0,0,3.3268,3.3271,3.3265,3.3292,3.3298,3.3301,3.3315,3.3307,3.3317,3.3314,3.3307,3.3308,3.333,3.3332,3.3318,3.3357,3.3341,3.3344,3.3355,3.336,3.3364,3.3363,3.3299,0,0,0,0,0,3.3276,3.329,3.3292,3.3315,3.3318,3.3316,3.3323,3.3319,3.3325,3.3327,3.3329,3.3334,3.3345,3.3353,3.3364,3.339,3.339,3.3402,3.3406,3.341,3.3412,3.3425,3.343,3.3376,3.3376,3.3376,0,0,3.3292,3.3296,3.3305,3.3319,3.3323,3.3337,3.3318,3.3334,3.3344,3.3329,3.3349,3.335,3.3356,3.3379,3.339,3.3381,3.3427,3.3413,3.3415,3.3416,3.3428,3.3433,3.3438,3.3378,3.3378,3.3377,0,0,3.3328,3.3333,3.3352,3.3357,3.3363,3.3361,3.3366,3.337,3.3371,3.339,3.3379,3.3391,3.3411,3.3415,3.342,3.3457,3.3447,3.346,3.3481,3.3494,3.3498,3.3501,3.3513,3.3518,3.3463,3.3463,3.3463,0,3.3347,3.3368,3.3363,3.3379,3.3385,3.3373,3.3391,3.3396,3.3405,3.341,3.34,3.3424,3.3428,3.3451,3.346,3.3465,3.3469,3.3459,3.3498,3.3501,3.3505,3.3516,3.3521,3.3465,3.3464,3.3464,3.3464,0,3.339,3.3405,3.3419,3.3429,3.3437,3.3454,3.3451,3.3459,3.3454,3.3453,3.3472,3.3476,3.3486,3.3492,3.3487,3.3514,3.3509,3.3499,3.3482,3.3511,3.3522,3.3526,3.3467,3.3466,3.3466,3.3465,0,0,3.344,3.3446,3.3452,3.3455,3.3461,3.3472,3.3488,3.3499,3.3505,3.3513,3.3525,3.3542,3.3533,3.3538,3.3534,3.3545,3.3572,3.3533,3.3533,3.3539,3.3602,3.3608,3.3614,3.3567,3.3568,3.3568,3.3601,0,3.3475,3.3504,3.3499,3.3526,3.3539,3.3527,3.3541,3.3546,3.3545,3.3555,3.3555,3.3566,3.3554,3.3557,3.3567,3.3567,3.3585,3.3565,3.3577,3.3578,3.3575,3.3619,3.3627,3.3657,3.3605,3.3606,3.3606,0,3.352,3.3529,3.3557,3.356,3.3565,3.3578,3.3586,3.3597,3.3601,3.36,3.3606,3.3599,3.3614,3.3598,3.3618,3.3605,3.361,3.361,3.3611,3.3612,3.3593,3.3619,3.3667,3.3671,3.3613,3.3612,3.3612,0,3.3552,3.3571,3.359,3.3593,3.3598,3.3607,3.3609,3.3613,3.3619,3.3627,3.363,3.364,3.3644,3.3651,3.3647,3.3635,3.3667,3.3651,3.3666,3.3666,3.3672,3.3672,3.372,3.3678,3.3678,3.3677,3.3677,0,3.3591,3.3609,3.3604,3.3615,3.3634,3.3629,3.3647,3.3648,3.3652,3.3662,3.3653,3.3664,3.3658,3.3667,3.3664,3.3681,3.3683,3.3682,3.368,3.3682,3.3682,3.3684,3.3682,3.3679,3.3678,3.3678,3.3678,0,3.363,3.3627,3.3647,3.365,3.3651,3.3664,3.3666,3.3676,3.3675,3.3689,3.3692,3.369,3.3701,3.3697,3.3709,3.3706,3.3727,3.3724,3.3726,3.3724,3.3739,3.3737,3.379,3.3796,3.375,3.3751,3.3751,0,3.3654,3.3667,3.3671,3.3678,3.3681,3.3692,3.3698,3.3693,3.3699,3.3705,3.3715,3.3725,3.3733,3.375,3.3749,3.3758,3.3754,3.3772,3.3755,3.3756,3.3753,3.3752,3.3752,3.3775,3.3775,3.3776,3.3776,0,3.3698,3.3696,3.3705,3.3714,3.3721,3.3728,3.3734,3.374,3.3735,3.3742,3.3753,3.3759,3.3771,3.3781,3.3789,3.379,3.3782,3.3782,3.3785,3.3786,3.3786,3.3785,3.3733,3.378,3.378,3.3779,3.3779,3.3779,3.3729,3.374,3.3744,3.3754,3.3758,3.3763,3.3773,3.3773,3.3782,3.3791,3.3787,3.3799,3.3803,3.3813,3.3815,3.3824,3.3818,3.3823,3.3824,3.3826,3.3827,3.3786,3.3826,3.3826,3.3826,3.3826,3.3826,0,3.3771,3.3773,3.3783,3.3791,3.3799,3.3791,3.3796,3.3803,3.3814,3.3819,3.3826,3.3838,3.3848,3.3847,3.3856,3.3863,3.3859,3.3865,3.3864,3.3864,3.3833,3.3829,3.3868,3.3868,3.3868,3.3868,3.3868,3.3868,3.3794,3.3811,3.3809,3.3828,3.3829,3.3841,3.3845,3.3849,3.3853,3.3867,3.3874,3.3874,3.3876,3.3885,3.3892,3.3892,3.3895,3.3902,3.39,3.3871,3.3867,3.3863,3.3858,3.3903,3.3903,3.393,3.3931,3.3931]}]]